Regional Weather Roundup
Issued by NWS

Home | Current Version | Previous Version | Text Only | Print | Product List | Glossary Off
Versions: 1 2 3 4 5 6 7 8 9 10 11 12 13 14 15 16 17 18 19 20 21 22 23 24 25 26 27 28 29 30 31 32 33 34 35 36 37 38 39 40 41 42 43 44 45 46 47 48 49 50

000
ASUS43 KOAX 290310
RWRNE

WEATHER ROUNDUP FOR NEBRASKA
NATIONAL WEATHER SERVICE OMAHA NE
1000 PM CDT SAT MAY 28 2016

NOTES: SATELLITE DATA IS BEING USED TO AUGMENT CLOUD COVER ABOVE
       12000 FEET.
       "FAIR" INDICATES FEW OR NO CLOUDS BELOW 12,000 FEET WITH NO
       SIGNIFICANT WEATHER AND/OR OBSTRUCTIONS TO VISIBILITY.

  * THESE STATIONS DO NOT REPORT WEATHER SUCH AS RAIN...SNOW OR FOG.

NEZ001>004-019>022-054>056-290400-
NEBRASKA PANHANDLE

CITY           SKY/WX    TMP DP  RH WIND       PRES   REMARKS
SCOTTSBLUFF    CLEAR     58  47  66 NE8       30.04R
CHADRON        CLEAR     50  47  89 S7        30.03R
KIMBALL        LGT RAIN  59  44  58 S3        30.08R
SIDNEY         MOCLDY    59  49  69 NE7       30.07R
$$

NEZ057>060-069>072-079>082-290400-
SOUTHWEST NEBRASKA

CITY           SKY/WX    TMP DP  RH WIND       PRES   REMARKS
NORTH PLATTE   CLOUDY    60  52  74 NW15      30.03R
IMPERIAL       PTCLDY    66  53  63 S3        30.02R
LEXINGTON      CLEAR     64  56  74 S3        29.99R
MCCOOK         CLEAR     66  50  56 S3        29.99R
OGALLALA       CLOUDY    57  49  74 NE9       30.03S
$$

NEZ005>010-023>029-035>040-094-290400-
NORTH CENTRAL NEBRASKA

CITY           SKY/WX    TMP DP  RH WIND       PRES   REMARKS
VALENTINE      LGT RAIN  61  50  67 W32G38    30.00R
AINSWORTH      PTCLDY    60  54  80 SE3       29.98R
BROKEN BOW     PTCLDY    61  57  87 CALM      29.99R
O`NEILL        CLEAR     60  56  87 CALM      29.97R
ORD              N/A     61  56  83 CALM      29.97R
THEDFORD       CLOUDY    63  52  67 SW6       30.01R
$$

NEZ041-046>049-061>064-073>077-083>087-290400-
SOUTH CENTRAL NEBRASKA

CITY           SKY/WX    TMP DP  RH WIND       PRES   REMARKS
GRAND ISLAND   PTCLDY    65  57  75 E3        29.98R
AURORA         CLEAR     65  57  74 E3        29.98R
HASTINGS       CLEAR     66  55  67 CALM      29.98R
HEBRON         MOCLDY    65  59  80 CALM      29.97R
HOLDREGE       CLEAR     66  53  63 SW6       29.99R
KEARNEY *      CLEAR     66  52  59 CALM      29.99R
YORK           CLEAR     66  57  72 CALM      29.97R
$$

NEZ011>018-030>034-042>045-290400-
NORTHEAST NEBRASKA

CITY           SKY/WX    TMP DP  RH WIND       PRES   REMARKS
NORFOLK        MOCLDY    59  55  87 W5        29.96R
ALBION         CLEAR     57  53  88 CALM      29.98R
BLAIR          PTCLDY    64  57  77 W5        29.94R
FREMONT        CLEAR     61  56  83 W6        29.96R
TEKAMAH        CLEAR     63  55  75 NW13      29.93R
WAYNE          PTCLDY    59  57  92 W6        29.95R
$$

NEZ050>053-065>068-078-088>093-290400-
SOUTHEAST NEBRASKA

CITY           SKY/WX    TMP DP  RH WIND       PRES   REMARKS
LINCOLN        CLEAR     69  56  62 NW8       29.96R
OMAHA EPPLEY   PTCLDY    67  56  67 W9        29.93R
BEATRICE       CLEAR     66  58  77 CALM      29.97R
FALLS CITY     CLEAR     67  60  78 SW7       29.94R
NEBRASKA CITY  CLEAR     64  57  78 SW8       29.94R
PLATTSMOUTH    CLEAR     67  60  78 W5        29.94R
$$

NEZ044-045-051>053-067-290400-
OMAHA AREA

CITY           SKY/WX    TMP DP  RH WIND       PRES   REMARKS
OMAHA EPPLEY   PTCLDY    67  56  67 W9        29.93R
BLAIR          PTCLDY    64  57  77 W5        29.94R
FREMONT        CLEAR     61  56  83 W6        29.96R
MILLARD        CLEAR     67  57  70 NW9       29.94R
PLATTSMOUTH    CLEAR     67  60  78 W5        29.94R
WAHOO          FAIR      64  58  79 NW6       29.96R
$$




USA.gov is the U.S. government's official web portal to all federal, state and local government web resources and services.